Location: Bierbaum
(46.8333°N, 15.7833°E)
Time: 00:14:24
(UTC+00:00)

Daily predictions for brighter satellites

Satellite Brightness Start Highest point End
(mag) Time Altitude Azimuth Time Altitude Azimuth Time Altitude Azimuth
Cosmos 2344 4.2 02:24:42 47° NE 02:24:42 47° NE 02:30:06 10° NE
USA 238 DEB 4.2 02:52:05 52° NE 02:52:05 52° NE 02:57:12 10° NE
USA 238 4.2 02:52:10 52° NE 02:52:10 52° NE 02:57:18 10° NE
Cosmos 2369 Rocket 3.5 02:52:23 36° E 02:52:23 36° E 02:57:10 10° NE
USA 215 3.9 02:53:22 10° E 02:59:29 46° NNE 02:59:29 46° NNE
Cosmos 1943 Rocket 3.6 03:12:50 28° NNE 03:12:50 28° NNE 03:15:25 10° NNE
CZ-2C R/B 4.1 03:07:55 10° SE 03:12:44 33° ENE 03:16:07 17° NNE
Cosmos 1634 Rocket 4.3 03:13:25 34° N 03:16:11 63° ENE 03:22:21 10° SSE
Tsikada Rocket 4.0 03:31:33 64° N 03:31:33 64° N 03:36:53 10° N
MOS 1-B Rocket 3.9 03:34:29 10° SSE 03:40:39 79° ENE 03:43:22 33° N
Cosmos 836 Rocket 4.4 03:40:51 82° ESE 03:40:51 82° ESE 03:45:53 10° SSE
CENTAUR R/B 2.9 03:44:24 49° NNW 03:44:24 49° NNW 03:51:11 10° NE
Cosmos 2278 Rocket 4.5 03:51:48 11° N 03:51:48 11° N 03:52:03 10° N
Meteor 2-13 Rocket 4.3 03:46:27 10° S 03:52:34 81° W 03:58:41 10° N
SKYMED 2 3.9 03:48:56 10° SSE 03:53:12 63° ENE 03:54:15 46° NNE
SJ-12 4.4 03:50:40 10° NNE 03:54:47 60° E 03:58:52 10° S
ATLAS 5 CENTAUR R/B 3.9 03:54:26 10° SSE 03:57:18 20° ESE 04:00:23 10° ENE
Cosmos 1503 Rocket 4.4 03:52:44 10° S 03:57:56 64° ESE 04:03:14 10° NNE
NOSS 3-2 (A) 4.2 04:04:16 34° NNW 04:04:16 34° NNW 04:10:21 10° NNE
Cosmos 1151 Rocket 3.1 04:05:31 60° SSW 04:05:31 60° SSW 04:09:13 10° S
Cosmos 1486 Rocket 3.9 04:03:40 50° SW 04:04:56 70° WNW 04:10:14 10° NNE
SL-8 R/B 3.7 04:07:03 61° SW 04:07:24 63° SSW 04:12:07 10° SE
H-2A R/B 4.3 04:04:05 10° ESE 04:07:29 23° ENE 04:10:58 10° N
Cosmos 773 Rocket 4.4 04:04:51 22° N 04:08:10 60° ENE 04:13:17 10° SE
Meteor 2-6 Rocket 4.0 04:05:33 23° NNW 04:09:01 84° W 04:14:25 10° S
DNEPR-1 R/B 3.9 04:11:35 55° W 04:12:15 60° WSW 04:17:53 10° SSE
NOSS 3-2 (C) 3.7 04:12:49 41° NW 04:13:33 43° NW 04:19:54 10° NE
ATLAS 3B R/B 4.1 04:08:49 10° S 04:14:39 36° ESE 04:20:44 10° NE
Okean 3 Rocket 3.5 04:13:08 10° SSW 04:17:41 79° W 04:22:15 10° N
Cosmos 1833 4.1 04:15:45 36° NW 04:18:08 70° WSW 04:23:49 10° SSE
Cosmos 1766 Rocket 3.4 04:16:29 10° SSW 04:20:47 65° WNW 04:25:05 10° N
SL-27 R/B 2.8 04:21:23 40° N 04:22:27 63° ENE 04:25:57 10° SSE
BREEZE-M DEB (TANK) 4.0 04:21:03 33° WSW 04:22:42 42° SSW 04:36:06 10° SE
Envisat 2.8 04:18:38 10° N 04:23:44 74° WNW 04:28:47 10° SSW
Cosmos 1328 Rocket 3.5 04:25:33 40° NW 04:26:52 60° W 04:31:08 10° S
Cosmos 2263 4.2 04:24:35 16° SW 04:29:02 58° WNW 04:34:45 10° NNE
SAR-Lupe-3 4.4 04:26:32 10° N 04:30:08 72° WNW 04:33:43 10° SSW
Cosmos 2297 Rocket 4.0 04:26:35 10° N 04:31:14 25° NE 04:35:52 10° ESE
Cosmos 2098 Rocket 3.5 04:32:19 29° WSW 04:34:02 42° WNW 04:39:04 10° N
Cosmos 2369 Rocket 2.6 04:34:16 31° W 04:36:03 39° NW 04:41:19 10° NNE
Meteor 1-10 Rocket 4.1 04:30:56 10° NNW 04:36:28 69° W 04:41:57 10° S
Cosmos 2344 4.3 04:34:44 26° WNW 04:37:38 34° NNW 04:45:09 10° NE
BREEZE-M DEB (TANK) 4.5 04:31:11 23° WNW 04:39:53 72° SSW 04:44:11 10° SE
FALCON 9 DEB 4.2 04:40:34 28° NNW 04:40:45 29° N 04:43:46 10° NE
Meteor 2-15 Rocket 4.4 04:35:07 10° N 04:41:15 90° E 04:47:19 10° S
COSMO-SKYMED 1 2.9 04:37:12 10° S 04:41:19 42° W 04:42:52 30° NW
Cosmos 1656 Rocket 3.8 04:37:56 18° WSW 04:41:43 46° WNW 04:46:59 10° NNE
USA 238 DEB 4.4 04:39:34 27° WNW 04:41:58 34° NNW 04:48:14 10° NNE
USA 238 4.4 04:39:38 27° WNW 04:42:03 34° NNW 04:48:21 10° NNE
USA 215 3.2 04:35:42 10° SE 04:42:15 85° SW 04:46:50 22° NW
Cosmos 2279 Rocket 4.1 04:36:24 10° NNW 04:42:19 49° W 04:48:13 10° SSW
H-2A R/B 4.0 04:40:22 10° N 04:46:54 12° SW 04:47:17 10° SW
Meteor 1-31 Rocket 2.8 04:40:37 10° N 04:44:25 52° WNW 04:48:13 10° SSW
BREEZE-M DEB (TANK) 3.9 04:34:15 10° SW 04:46:52 61° SSE 04:50:26 10° ENE
Alouette 2 Rocket 3.8 04:43:54 10° N 04:47:37 54° ENE 04:51:08 10° SSE
IRAS Rocket 4.2 04:46:18 10° SSE 04:51:48 86° WSW 04:57:20 10° NNW
CZ-4B R/B 3.5 04:49:45 10° SE 04:52:33 26° ENE 04:55:19 10° N
Nadezhda 4 Rocket 3.9 04:46:41 10° S 04:52:52 86° W 04:59:10 10° N
CZ-2C R/B 3.1 04:47:50 10° SSW 04:52:56 39° W 04:57:37 12° NNW
Cosmos 1408 Rocket 3.4 04:49:00 10° SSW 04:53:15 62° W 04:57:32 10° N
CZ-4B R/B 4.4 04:49:09 10° N 04:53:24 45° WNW 04:57:38 10° SW
Cosmos 1943 Rocket 3.6 04:54:23 18° NW 04:54:27 18° NW 04:58:11 10° N
DMSP B5D1-3 4.5 04:49:57 10° SSE 04:55:06 88° WSW 05:00:18 10° NNW
Cosmos 1354 Rocket 4.2 04:54:52 10° SW 04:59:58 49° WNW 05:05:09 10° NNE
EP 2 4.5 04:58:11 10° SW 05:01:15 89° SE 05:04:16 10° NE
Cosmos 1743 Rocket 3.5 04:58:38 10° S 05:03:01 89° ENE 05:07:24 10° N
Cosmos 2228 Rocket 3.5 04:59:50 10° N 05:04:20 69° E 05:08:51 10° SSE
Cosmos 2227 Rocket 3.7 05:02:13 10° NNW 05:07:15 32° NE 05:12:15 10° ESE
Landsat 5 4.5 05:05:19 10° SSW 05:09:17 30° W 05:12:32 14° NW
Cosmos 1092 Rocket 4.2 05:04:13 10° S 05:10:27 79° E 05:16:48 10° N
Cosmos 1515 Rocket 4.0 05:06:43 10° NNW 05:10:45 38° W 05:14:46 10° SSW
ADEOS 3.6 05:07:33 10° N 05:12:40 56° WNW 05:17:45 10° SSW
SJ-7 4.5 05:08:33 10° N 05:12:41 56° WNW 05:16:43 10° SSW
SJ 16-02 1.3 05:08:30 10° SSW 05:12:51 65° WNW 05:17:13 10° NNE
Meteor 1-20 Rocket 4.3 05:08:38 10° S 05:14:13 82° E 05:19:57 10° NNE
Meteor 1-19 Rocket 4.5 05:11:26 10° N 05:17:03 71° ENE 05:22:29 10° SSE
BREEZE-M DEB (TANK) 3.7 05:16:52 17° WNW 05:19:32 69° N 05:30:02 10° E
Cosmos 1602 3.6 05:18:44 10° S 05:22:33 85° W 05:26:23 10° N
NOAA 11 4.3 05:18:57 10° N 05:24:14 51° WNW 05:29:31 10° SW
CZ-4C R/B 4.3 05:23:17 10° SW 05:25:26 17° W 05:26:28 15° WNW
Cosmos 1538 Rocket 4.0 05:21:44 10° NNW 05:26:56 65° WSW 05:32:02 10° S
COSMOS 2487 2.5 05:23:41 10° NNW 05:26:57 52° WSW 05:30:12 10° S
Cosmos 1500 Rocket 3.9 05:26:34 10° SSW 05:30:50 45° WNW 05:35:10 10° N
CZ-2C R/B 3.1 05:27:07 10° N 05:31:52 52° WNW 05:36:48 10° SW
PSLV R/B 4.4 05:28:38 10° NNE 05:32:34 62° E 05:36:34 10° S
AQUARIUS 4.2 05:29:46 10° NNE 05:34:18 87° ESE 05:38:47 10° SSW
SMAP 3.0 05:30:04 10° NNE 05:34:45 82° WNW 05:39:24 10° SSW
OPS 6432 4.3 05:31:52 10° NW 05:34:48 73° NE 05:38:16 10° SE
GENESIS II 4.4 05:31:58 10° NW 05:35:54 76° NE 05:39:52 10° SE
CENTAUR R/B 4.0 05:31:36 11° WNW 05:36:40 24° NNW 05:42:46 10° NE
Sich 1 2.9 05:32:38 10° S 05:36:55 81° W 05:41:13 10° N
CZ-4B R/B 3.2 05:36:30 10° N 05:39:46 34° WNW 05:43:03 10° SW
FALCON 9 DEB 4.0 05:37:32 11° NW 05:39:58 28° NNE 05:42:33 10° ENE
H-2A R/B 2.7 05:35:24 10° NNE 05:40:15 57° E 05:45:06 10° S
ATLAS 5 CENTAUR R/B 1.7 05:37:41 10° WSW 05:41:27 46° NW 05:45:44 10° NNE
Meteor 1-27 Rocket 4.4 05:36:43 10° NNW 05:41:43 33° W 05:46:46 10° SSW
Cosmos 2219 3.9 05:36:47 10° NNW 05:42:20 53° ENE 05:47:53 10° SE
FALCON 9 DEB 3.8 05:40:01 10° NW 05:42:35 32° NNE 05:45:13 10° E
Cosmos 1707 Rocket 3.7 05:38:18 10° N 05:42:46 84° E 05:47:14 10° S
FALCON 9 DEB 3.7 05:40:11 10° NW 05:42:47 35° NNE 05:45:27 10° E
Cosmos 1805 Rocket 3.6 05:38:40 10° SSW 05:42:58 55° WNW 05:47:17 10° N
H-2A R/B 2.6 05:39:10 10° S 05:43:12 40° W 05:47:22 10° NNW
Cosmos 1500 3.1 05:40:57 10° SSW 05:44:45 73° W 05:48:33 10° N
Cosmos 1680 Rocket 3.9 05:42:28 10° NNW 05:47:47 67° ENE 05:53:00 10° SSE
USA 32 4.5 05:44:05 10° NNW 05:48:59 42° W 05:53:53 10° SSW
CZ-4B R/B 4.4 05:45:40 10° NNE 05:50:48 48° E 05:55:56 10° S
Lacrosse 4 Rocket 3.0 05:48:29 10° NNW 05:52:33 33° NE 05:56:38 10° ESE
Meteor 2-14 Rocket 4.5 05:47:39 10° SSW 05:53:46 70° W 05:59:56 10° N
Cosmos 1340 Rocket 3.9 05:52:17 10° SW 05:55:33 24° WNW 05:58:50 10° NNW
Cosmos 1862 Rocket 4.0 05:51:31 10° N 05:55:50 67° E 06:00:08 10° SSE
